This is the latest recevied weather packets stored in our database for station/object SV2RCS-13. If no packets are shown the sender has not sent any weather packets the latest 10 day(s).
| Time | Temp. | Humidity | Pressure | Rain* | Wind** | Luminosity | Snow |
|---|---|---|---|---|---|---|---|
| 1777478217 | 20° C | 45% | 1011.6 hPa | - | - | - | - |
| 1777477617 | 20.56° C | 44% | 1011.5 hPa | - | - | - | - |
| 1777477017 | 20.56° C | 42% | 1011.6 hPa | - | - | - | - |
| 1777476417 | 20.56° C | 40% | 1011.6 hPa | - | - | - | - |
| 1777475816 | 20.56° C | 40% | 1011.4 hPa | - | - | - | - |
| 1777475217 | 20.56° C | 40% | 1011.4 hPa | - | - | - | - |
| 1777474616 | 20.56° C | 39% | 1011.4 hPa | - | - | - | - |
| 1777474016 | 21.11° C | 39% | 1011.4 hPa | - | - | - | - |
| 1777473416 | 21.11° C | 37% | 1011.3 hPa | - | - | - | - |
| 1777472817 | 21.11° C | 36% | 1011.3 hPa | - | - | - | - |
| 1777472217 | 21.11° C | 34% | 1011.3 hPa | - | - | - | - |
| 1777471617 | 21.11° C | 33% | 1011.2 hPa | - | - | - | - |
| 1777471022 | 21.67° C | 31% | 1011.2 hPa | - | - | - | - |
| 1777470417 | 21.67° C | 30% | 1011.3 hPa | - | - | - | - |
| 1777469819 | 21.67° C | 26% | 1011.2 hPa | - | - | - | - |
| 1777469217 | 21.67° C | 26% | 1011.4 hPa | - | - | - | - |
| 1777468616 | 21.67° C | 29% | 1011.4 hPa | - | - | - | - |
| 1777468017 | 21.67° C | 28% | 1011.6 hPa | - | - | - | - |
| 1777467417 | 21.67° C | 29% | 1011.7 hPa | - | - | - | - |
| 1777466816 | 21.67° C | 29% | 1011.9 hPa | - | - | - | - |
| 1777466217 | 21.67° C | 28% | 1012.1 hPa | - | - | - | - |
| 1777465616 | 21.11° C | 29% | 1012.2 hPa | - | - | - | - |
| 1777465017 | 21.11° C | 28% | 1012.2 hPa | - | - | - | - |
| 1777464417 | 21.11° C | 29% | 1012.5 hPa | - | - | - | - |
| 1777463817 | 21.11° C | 28% | 1012.4 hPa | - | - | - | - |
* Rain since midnight (hover to see other rain measurements)
** Current wind speed in m/s (hover to see current wind gust speed)